Flag for United Kingdom Weather past 2 weeks in Cardiff, Wales, United Kingdom

Now
41 °F

Passing clouds.


Feels Like: 33 °F
Forecast: N/A
Wind: 15 mph from West

Location: Wales Airport

Current Time: Mar 3, 2015 at 9:13:30 PM

Latest Report: Mar 3, 2015 at 8:20 PM


Visibility: N/A

Pressure: 30.12 "Hg

Humidity: 76%

Dew point: 34 °F

Location of CardiffLocation

Historic Weather in Cardiff — Graph

°F

Cardiff temperature yesterday

Maximum temperature yesterday: 45 °F (at 12:20 PM)
Minimum temperature yesterday: 37 °F (at 3:50 AM)
Average temperature yesterday: 41 °F

Past Weeks' High & Low Weather Summary

 TemperatureHumidityPressure
High52 °F (Feb 25, 12:50 PM)100% (Feb 19, 9:20 AM)30.74 "Hg (Feb 19, 9:20 AM)
Low32 °F (Feb 22, 3:50 AM)49% (Feb 26, 4:20 PM)29.24 "Hg (Feb 23, 12:20 PM)
Average43 °F86%29.88 "Hg
* Reported Feb 16 7:20 PM — Mar 3 7:50 PM, Cardiff, Weather by CustomWeather, © 2015

Note: Actual official high and low records may vary slightly from our data, if they occured in-between our weather recording intervals... More about our weather records

Advertising

Cardiff weather history for previous 24 hours

 ConditionsComfort  
Time TempWeatherWind HumidityBarometerVisibility
7:50 PM
Tue, Mar 3
43 °FPassing clouds.16 mph66%30.12 "HgN/A
7:20 PM41 °FPassing clouds.16 mph70%30.12 "HgN/A
6:50 PM41 °FPassing clouds.17 mph70%30.09 "HgN/A
6:20 PM41 °FPassing clouds.17 mph76%30.09 "HgN/A
5:50 PM43 °FScattered clouds.18 mph71%30.07 "HgN/A
5:20 PM41 °FPassing clouds.17 mph76%30.07 "HgN/A
4:50 PM43 °FPassing clouds.18 mph66%30.07 "HgN/A
4:20 PM45 °FPartly sunny.16 mph66%30.07 "HgN/A
3:50 PM45 °FScattered clouds.16 mph66%30.07 "HgN/A
3:20 PM43 °FScattered clouds.16 mph76%30.04 "HgN/A
2:50 PM43 °FPassing clouds.16 mph71%30.04 "HgN/A
2:20 PM45 °FScattered clouds.20 mph71%30.04 "HgN/A
1:50 PM45 °FBroken clouds.20 mph71%30.04 "HgN/A
1:20 PM46 °FPartly sunny.20 mph66%30.04 "HgN/A
12:50 PM45 °FPassing clouds.16 mph76%30.01 "HgN/A
12:20 PM45 °FScattered clouds.20 mph71%30.01 "HgN/A
11:50 AM45 °FPartly sunny.18 mph66%30.01 "HgN/A
11:20 AM45 °FPassing clouds.18 mph66%30.01 "HgN/A
10:50 AM45 °FScattered clouds.16 mph71%29.98 "HgN/A
10:20 AM43 °FScattered clouds.18 mph76%29.98 "HgN/A
9:50 AM43 °FPartly sunny.17 mph87%29.98 "HgN/A
9:20 AM41 °FScattered clouds.14 mph87%29.95 "HgN/A
8:50 AM41 °FQuite cool.15 mph87%29.95 "HgN/A
8:20 AM41 °FLight rain. Broken clouds.14 mph81%29.95 "HgN/A
7:50 AM37 °FPartly sunny.5 mph93%29.92 "HgN/A
7:20 AM36 °FScattered clouds.7 mph93%29.92 "HgN/A
6:50 AM36 °FPassing clouds.8 mph100%29.92 "HgN/A
6:20 AM37 °FPassing clouds.8 mph93%29.89 "HgN/A
5:50 AM37 °FDrizzle. Low clouds.5 mph93%29.89 "Hg2 mi
5:20 AM37 °FLight rain. Overcast.12 mph93%29.89 "HgN/A
4:50 AM41 °FMostly cloudy.12 mph93%29.86 "HgN/A
4:20 AM39 °FMostly cloudy.14 mph100%29.89 "HgN/A
3:50 AM37 °FHeavy rain. Mostly cloudy.6 mph100%29.89 "Hg2 mi
3:20 AM37 °FPassing clouds.7 mph100%29.89 "HgN/A
2:50 AM37 °FLight rain. Passing clouds.16 mph93%29.92 "HgN/A
2:20 AM41 °FPassing clouds.13 mph93%29.92 "HgN/A
1:50 AM39 °FPartly cloudy.9 mph93%29.92 "HgN/A
1:20 AM39 °FHeavy rain. Partly cloudy.10 mph93%29.95 "Hg2 mi
12:50 AM41 °FLight rain. Overcast.10 mph87%29.95 "HgN/A
12:20 AM41 °FPassing clouds.13 mph87%29.95 "HgN/A
11:50 PM
Mon, Mar 2
41 °FPassing clouds.12 mph87%29.95 "HgN/A
11:20 PM39 °FPassing clouds.10 mph93%29.98 "HgN/A
10:50 PM41 °FPassing clouds.8 mph87%29.98 "HgN/A
10:20 PM41 °FLight rain. Passing clouds.13 mph87%29.95 "HgN/A
9:50 PM41 °FPassing clouds.14 mph87%29.95 "HgN/A
9:20 PM41 °FPassing clouds.10 mph87%29.95 "HgN/A
Weather by CustomWeather, © 2015

See weather overviewHow to use our weather pages